Zurück zum Katalog

CZ-6A DEB

AktivPO
NORAD 54631·DEBRIS·🇨🇳 China

Gestartet Nov 11, 2022 von Taiyuan Satellite Launch Center

Loading…

Nächste Überflüge (nächste 24 Stunden)

TLE

AktuellSource: Space-Track

Epoche: Sep 13, 2026, 02:58 UTC

1 54631U 22151PH  26256.12410251  .00005843  00000-0  10002-2 0  9992
2 54631  98.6235 319.9755 0071936  34.3146 326.2673 14.67527210201670

Verfolge CZ-6A DEB in Echtzeit mit AllMySat

Download on the App Store